Es ist keine erh├Âhte Aufmerksamkeit aufgrund des Wetters notwendig.    Es gibt keine Warnungen.
Webcam Vorhersage DWD Regenradar Wetterlage NRW Blitze Wind GFS-Modell
webcam


Kleve -D├╝ffelward more information Kleve -D├╝ffelward


Goch more information Goch


Thunder radar more information blitzortung!


Weitere Templates dieser Seite und andere Webseiten:

Meteotemplate

Awekas - Template

weather34 - Template

Wetter aus Willich

Hubert Reyers' Wetter


te
World Weather Websites
 

METAR-Meldungen aus der Umgebung

   
EHDL - Nijmegen
Aktualisierung: 22-10-2021 21:55
Klar  
Klar  
   Wind: WSW 7.4 km/h
Wind: WSW 7.4 km/h
Temperatur: 4°C
Gef├╝hlt: 2°C
Taupunkt: 4°C
Luftfeuchte: 100%
Luftdruck: 1021 hPa
Bew├Âlkt: Klar
Sichtbarkeit: More than 10 km
Bew├Âlkung: Klar
EHDL 221955Z AUTO 25004KT 9999 NCD 04/04 Q1021 BLU
EHDL - Arnhem
Aktualisierung: 22-10-2021 21:55
Klar  
Klar  
   Wind: WSW 7.4 km/h
Wind: WSW 7.4 km/h
Temperatur: 4°C
Gef├╝hlt: 2°C
Taupunkt: 4°C
Luftfeuchte: 100%
Luftdruck: 1021 hPa
Bew├Âlkt: Klar
Sichtbarkeit: More than 10 km
Bew├Âlkung: Klar
EHDL 221955Z AUTO 25004KT 9999 NCD 04/04 Q1021 BLU
EHAM - Amsterdam
Aktualisierung: 22-10-2021 21:55
leicht bew├Âlkt  
leicht bew├Âlkt  
   Wind: NW 11.1 km/h
Wind: NW 11.1 km/h
Temperatur: 8°C
Gef├╝hlt: 6°C
Taupunkt: 4°C
Luftfeuchte: 76%
Luftdruck: 1021 hPa
Bew├Âlkt: leicht bew├Âlkt
Sichtbarkeit: More than 10 km
Bew├Âlkung: leicht bew├Âlkt 3800 ft
EHAM 221955Z 31006KT 270V340 9999 FEW038 08/04 Q1021 NOSIG
EHDL - Ede
Aktualisierung: 22-10-2021 21:55
Klar  
Klar  
   Wind: WSW 7.4 km/h
Wind: WSW 7.4 km/h
Temperatur: 4°C
Gef├╝hlt: 2°C
Taupunkt: 4°C
Luftfeuchte: 100%
Luftdruck: 1021 hPa
Bew├Âlkt: Klar
Sichtbarkeit: More than 10 km
Bew├Âlkung: Klar
EHDL 221955Z AUTO 25004KT 9999 NCD 04/04 Q1021 BLU
EHDL - Emmen
Aktualisierung: 22-10-2021 21:55
Klar  
Klar  
   Wind: WSW 7.4 km/h
Wind: WSW 7.4 km/h
Temperatur: 4°C
Gef├╝hlt: 2°C
Taupunkt: 4°C
Luftfeuchte: 100%
Luftdruck: 1021 hPa
Bew├Âlkt: Klar
Sichtbarkeit: More than 10 km
Bew├Âlkung: Klar
EHDL 221955Z AUTO 25004KT 9999 NCD 04/04 Q1021 BLU
EHAM - Den Haag
Aktualisierung: 22-10-2021 21:55
leicht bew├Âlkt  
leicht bew├Âlkt  
   Wind: NW 11.1 km/h
Wind: NW 11.1 km/h
Temperatur: 8°C
Gef├╝hlt: 6°C
Taupunkt: 4°C
Luftfeuchte: 76%
Luftdruck: 1021 hPa
Bew├Âlkt: leicht bew├Âlkt
Sichtbarkeit: More than 10 km
Bew├Âlkung: leicht bew├Âlkt 3800 ft
EHAM 221955Z 31006KT 270V340 9999 FEW038 08/04 Q1021 NOSIG
EHAM - Apeldoorn
Aktualisierung: 22-10-2021 21:55
leicht bew├Âlkt  
leicht bew├Âlkt  
   Wind: NW 11.1 km/h
Wind: NW 11.1 km/h
Temperatur: 8°C
Gef├╝hlt: 6°C
Taupunkt: 4°C
Luftfeuchte: 76%
Luftdruck: 1021 hPa
Bew├Âlkt: leicht bew├Âlkt
Sichtbarkeit: More than 10 km
Bew├Âlkung: leicht bew├Âlkt 3800 ft
EHAM 221955Z 31006KT 270V340 9999 FEW038 08/04 Q1021 NOSIG
EHAM - Leeuwarden
Aktualisierung: 22-10-2021 21:55
leicht bew├Âlkt  
leicht bew├Âlkt  
   Wind: NW 11.1 km/h
Wind: NW 11.1 km/h
Temperatur: 8°C
Gef├╝hlt: 6°C
Taupunkt: 4°C
Luftfeuchte: 76%
Luftdruck: 1021 hPa
Bew├Âlkt: leicht bew├Âlkt
Sichtbarkeit: More than 10 km
Bew├Âlkung: leicht bew├Âlkt 3800 ft
EHAM 221955Z 31006KT 270V340 9999 FEW038 08/04 Q1021 NOSIG
TNCC - Willemstad
Aktualisierung: 22-10-2021 21:00
leicht bew├Âlkt  
leicht bew├Âlkt  
   Wind: Osten 25.9 km/h
Wind: Osten 25.9 km/h
Temperatur: 31°C
Hitzeindex: 38°C
Taupunkt: 25°C
Luftfeuchte: 70%
Luftdruck: 1011 hPa
Bew├Âlkt: leicht bew├Âlkt
Sichtbarkeit: More than 10 km
Bew├Âlkung: leicht bew├Âlkt 2400 ft
TNCC 221900Z 09014KT 9999 FEW024 31/25 Q1011 NOSIG
EHEH - Eindhoven
Aktualisierung: 22-10-2021 21:55
Stark bew├Âlkt  
Stark bew├Âlkt  
   Wind: WSW 9.3 km/h
Wind: WSW 9.3 km/h
Temperatur: 8°C
Gef├╝hlt: 7°C
Taupunkt: 7°C
Luftfeuchte: 93%
Luftdruck: 1022 hPa
Bew├Âlkt: Stark bew├Âlkt
Sichtbarkeit: More than 10 km
Bew├Âlkung: Stark bew├Âlkt 3400 ft,
Stark bew├Âlkt 3900 ft
EHEH 221955Z AUTO 24005KT 9999 BKN034 BKN039 08/07 Q1022 BLU NOSIG
EHAM - Middelburg
Aktualisierung: 22-10-2021 21:55
leicht bew├Âlkt  
leicht bew├Âlkt  
   Wind: NW 11.1 km/h
Wind: NW 11.1 km/h
Temperatur: 8°C
Gef├╝hlt: 6°C
Taupunkt: 4°C
Luftfeuchte: 76%
Luftdruck: 1021 hPa
Bew├Âlkt: leicht bew├Âlkt
Sichtbarkeit: More than 10 km
Bew├Âlkung: leicht bew├Âlkt 3800 ft
EHAM 221955Z 31006KT 270V340 9999 FEW038 08/04 Q1021 NOSIG
EHAM - Delfzijl
Aktualisierung: 22-10-2021 21:55
leicht bew├Âlkt  
leicht bew├Âlkt  
   Wind: NW 11.1 km/h
Wind: NW 11.1 km/h
Temperatur: 8°C
Gef├╝hlt: 6°C
Taupunkt: 4°C
Luftfeuchte: 76%
Luftdruck: 1021 hPa
Bew├Âlkt: leicht bew├Âlkt
Sichtbarkeit: More than 10 km
Bew├Âlkung: leicht bew├Âlkt 3800 ft
EHAM 221955Z 31006KT 270V340 9999 FEW038 08/04 Q1021 NOSIG

Script entwickelt von  Saratoga-weather.org Angepasst f├╝r das Template von  Weerstation Leuven

Sie finden Wetter-Infos dieser Station auch auf:

UK Metoffice

European Weather Network

WeatherCloud

Weather Underground

AWEKAS

Neuwetter

Wettersektor

Von uns verwendete Ausr├╝stung:

Wetterstation
Davis VP2

Wetterprogramm
Meteobridge

WetterComputer
Computer

Anbieter
My provider

Davis VP2

Meteobridge

Computer

My provider